Total_Precipitation_Accumulation
0.42 0.52 0.59 0.65 0.69 0.66 0.76 0.84 0.85 0.79 0.86 0.94 0.90 0.89 0.94 0.95 0.88 0.75 0.63 0.57 0.49 0.42 0.40 0.39 0.41 0.46 0.53 0.60 0.68 0.75 0.85 1.01 1.18 1.33 1.53 1.82 2.14 2.43
0.55 0.60 0.62 0.67 0.76 0.69 0.75 0.82 0.84 0.89 0.93 0.87 0.79 0.79 0.76 0.66 0.62 0.57 0.53 0.57 0.47 0.38 0.33 0.34 0.35 0.38 0.41 0.46 0.50 0.55 0.60 0.64 0.68 0.74 0.84 1.01 1.24 1.57
0.71 0.74 0.77 0.78 0.81 0.79 0.85 0.86 0.81 0.89 0.89 0.75 0.82 0.87 0.77 0.60 0.48 0.47 0.47 0.51 0.47 0.44 0.39 0.35 0.31 0.29 0.32 0.35 0.40 0.44 0.47 0.51 0.55 0.55 0.55 0.58 0.63 0.74
0.81 1.02 1.04 1.04 0.96 0.86 0.94 0.92 0.88 1.02 0.97 0.86 0.94 0.97 0.92 0.74 0.60 0.50 0.42 0.42 0.45 0.46 0.41 0.39 0.36 0.31 0.27 0.27 0.28 0.30 0.32 0.34 0.37 0.38 0.38 0.37 0.38 0.41
0.85 0.97 1.08 1.20 1.10 1.00 0.98 0.97 0.99 1.08 1.06 0.95 0.98 1.13 1.15 0.98 0.74 0.53 0.39 0.40 0.41 0.46 0.43 0.37 0.36 0.35 0.32 0.27 0.25 0.25 0.24 0.24 0.25 0.26 0.27 0.29 0.30 0.29
0.82 0.75 0.85 1.10 1.21 1.14 1.03 0.97 1.01 1.06 1.07 1.07 1.10 1.24 1.29 1.23 1.01 0.71 0.53 0.44 0.38 0.38 0.44 0.39 0.35 0.34 0.33 0.29 0.26 0.25 0.26 0.24 0.23 0.23 0.24 0.25 0.24 0.24
0.60 0.58 0.61 0.78 1.02 1.18 1.10 1.02 1.02 1.00 1.01 1.08 1.15 1.24 1.28 1.33 1.18 0.92 0.71 0.58 0.45 0.40 0.44 0.41 0.38 0.33 0.31 0.30 0.28 0.24 0.22 0.22 0.21 0.21 0.21 0.22 0.21 0.20
0.55 0.59 0.54 0.49 0.57 0.76 0.95 1.07 1.13 1.07 1.01 1.07 1.20 1.25 1.27 1.28 1.26 1.09 0.87 0.68 0.55 0.47 0.51 0.48 0.47 0.43 0.33 0.28 0.28 0.25 0.21 0.20 0.19 0.18 0.17 0.17 0.18 0.18
0.53 0.57 0.46 0.37 0.45 0.51 0.64 0.77 0.90 0.95 0.95 1.02 1.10 1.20 1.31 1.41 1.40 1.22 1.03 0.87 0.69 0.59 0.62 0.54 0.51 0.51 0.47 0.39 0.39 0.31 0.26 0.23 0.20 0.19 0.19 0.17 0.17 0.18
0.52 0.55 0.54 0.49 0.47 0.53 0.61 0.62 0.65 0.71 0.74 0.79 0.89 1.05 1.25 1.44 1.57 1.46 1.31 1.06 0.88 0.78 0.77 0.64 0.52 0.49 0.47 0.48 0.48 0.41 0.33 0.28 0.23 0.20 0.20 0.21 0.19 0.19
0.57 0.57 0.58 0.53 0.51 0.44 0.50 0.55 0.57 0.61 0.62 0.69 0.74 0.90 1.16 1.37 1.46 1.49 1.37 1.16 0.94 0.79 0.76 0.72 0.58 0.52 0.50 0.44 0.43 0.44 0.38 0.34 0.31 0.25 0.21 0.22 0.25 0.25
0.73 0.71 0.61 0.54 0.48 0.40 0.44 0.53 0.53 0.56 0.63 0.66 0.71 0.74 0.85 1.13 1.39 1.26 1.19 1.12 0.97 0.78 0.61 0.64 0.62 0.61 0.54 0.39 0.34 0.36 0.33 0.33 0.35 0.34 0.30 0.25 0.27 0.24
0.85 0.83 0.80 0.66 0.49 0.44 0.46 0.53 0.51 0.58 0.73 0.78 0.79 0.83 0.90 1.01 1.17 1.19 1.11 1.03 0.96 0.78 0.62 0.60 0.56 0.58 0.53 0.39 0.30 0.29 0.29 0.27 0.26 0.31 0.35 0.35 0.30 0.26
0.97 0.99 0.99 0.81 0.59 0.49 0.42 0.40 0.38 0.39 0.53 0.66 0.73 0.75 0.79 0.87 0.99 1.12 1.15 1.11 0.98 0.86 0.78 0.74 0.60 0.54 0.49 0.40 0.31 0.27 0.27 0.28 0.29 0.27 0.31 0.44 0.42 0.38
0.85 0.95 0.88 0.74 0.62 0.50 0.42 0.37 0.35 0.34 0.43 0.53 0.60 0.64 0.66 0.73 0.96 1.23 1.37 1.39 1.28 1.04 0.92 0.85 0.75 0.63 0.60 0.48 0.36 0.29 0.27 0.27 0.28 0.31 0.32 0.38 0.43 0.42
0.71 0.74 0.74 0.73 0.71 0.66 0.54 0.45 0.37 0.39 0.44 0.51 0.61 0.72 0.82 0.91 1.01 1.17 1.35 1.39 1.37 1.18 0.97 0.92 0.85 0.83 0.72 0.55 0.47 0.39 0.31 0.27 0.27 0.31 0.37 0.38 0.44 0.51
0.71 0.79 0.80 0.87 0.90 0.90 0.85 0.76 0.69 0.66 0.62 0.62 0.74 0.87 0.92 0.97 1.01 1.11 1.25 1.28 1.18 1.07 0.95 0.87 0.92 0.91 0.85 0.75 0.61 0.46 0.38 0.32 0.30 0.35 0.45 0.46 0.44 0.47
0.58 0.74 0.87 0.96 1.04 1.06 1.07 1.00 0.92 0.84 0.78 0.80 0.86 0.95 0.99 1.00 1.02 1.13 1.24 1.24 1.12 1.00 0.96 0.83 0.84 0.95 0.92 0.79 0.64 0.54 0.47 0.41 0.38 0.44 0.50 0.50 0.46 0.44
0.43 0.58 0.75 0.87 1.01 1.07 1.09 1.03 0.98 0.92 0.91 0.93 0.98 1.01 1.05 1.06 1.07 1.10 1.19 1.22 1.14 1.03 1.00 0.98 0.90 0.87 0.83 0.63 0.48 0.47 0.49 0.45 0.49 0.51 0.53 0.50 0.44 0.42
0.37 0.49 0.63 0.77 0.92 1.06 1.12 1.09 1.06 1.04 0.98 0.95 1.03 1.06 1.09 1.13 1.10 1.07 1.11 1.18 1.16 1.10 1.05 0.99 0.92 0.80 0.71 0.63 0.52 0.46 0.46 0.54 0.57 0.56 0.55 0.57 0.54 0.53
0.44 0.48 0.55 0.66 0.84 1.02 1.12 1.17 1.18 1.12 1.01 1.00 1.03 1.08 1.08 1.13 1.10 1.05 1.09 1.20 1.21 1.15 0.99 0.82 0.75 0.85 0.91 0.94 0.77 0.51 0.46 0.51 0.61 0.66 0.69 0.72 0.65 0.62
0.53 0.54 0.58 0.67 0.83 1.01 1.11 1.16 1.20 1.15 1.09 1.07 1.05 1.10 1.12 1.13 1.11 1.07 1.07 1.14 1.11 1.07 0.98 0.93 1.02 1.16 1.18 1.04 0.78 0.64 0.62 0.63 0.67 0.70 0.69 0.67 0.66 0.60
0.67 0.63 0.63 0.69 0.81 0.95 1.04 1.08 1.14 1.13 1.08 1.07 1.06 1.09 1.13 1.13 1.18 1.18 1.11 1.13 1.14 1.17 1.24 1.21 1.19 1.20 1.17 1.09 0.96 0.85 0.76 0.72 0.72 0.71 0.63 0.60 0.54 0.52